Time,TemperatureF,DewpointF,PressureIn,WindDirection,WindDirectionDegrees,WindSpeedMPH,WindSpeedGustMPH,Humidity,HourlyPrecipIn,Conditions,Clouds,dailyrainin,SoftwareType,DateUTC
2013-02-15 00:02:00,43.0,22.0,29.85,NW,315,3.0,6.0,43,0.00,,,0.00,,2013-02-15 05:02:00,
2013-02-15 00:22:00,42.0,22.0,29.88,WNW,293,3.0,5.0,45,0.00,,,0.00,,2013-02-15 05:22:00,
2013-02-15 00:32:00,41.0,22.0,29.88,NNW,338,3.0,5.0,47,0.00,,,0.00,,2013-02-15 05:32:00,
2013-02-15 00:52:00,40.0,22.0,29.88,NW,315,3.0,4.0,49,0.00,,,0.00,,2013-02-15 05:52:00,
2013-02-15 01:02:00,40.0,22.0,29.88,NNE,23,3.0,4.0,48,0.00,,,0.00,,2013-02-15 06:02:00,
2013-02-15 01:11:00,39.0,21.0,29.88,NE,45,0.0,1.0,49,0.00,,,0.00,,2013-02-15 06:11:00,
2013-02-15 01:22:00,39.0,21.0,29.88,NE,45,0.0,1.0,49,0.00,,,0.00,,2013-02-15 06:22:00,
2013-02-15 01:32:00,38.0,21.0,29.88,ESE,113,0.0,0.0,50,0.00,,,0.00,,2013-02-15 06:32:00,
2013-02-15 01:52:00,37.0,21.0,29.88,East,90,0.0,0.0,51,0.00,,,0.00,,2013-02-15 06:52:00,
2013-02-15 02:01:00,36.0,20.0,29.88,East,90,0.0,0.0,51,0.00,,,0.00,,2013-02-15 07:01:00,
2013-02-15 02:21:00,34.0,19.0,29.88,South,180,0.0,0.0,54,0.00,,,0.00,,2013-02-15 07:21:00,
2013-02-15 02:32:00,34.0,20.0,29.88,South,180,0.0,0.0,55,0.00,,,0.00,,2013-02-15 07:32:00,
2013-02-15 02:52:00,34.0,20.0,29.88,SSW,203,0.0,0.0,55,0.00,,,0.00,,2013-02-15 07:52:00,
2013-02-15 03:01:00,34.0,20.0,29.88,SSW,203,0.0,0.0,56,0.00,,,0.00,,2013-02-15 08:01:00,
2013-02-15 03:21:00,35.0,22.0,29.88,NW,315,0.0,1.0,58,0.00,,,0.00,,2013-02-15 08:21:00,
2013-02-15 03:32:00,35.0,21.0,29.88,SW,225,0.0,0.0,56,0.00,,,0.00,,2013-02-15 08:32:00,
2013-02-15 03:53:00,35.0,21.0,29.88,South,180,0.0,0.0,57,0.00,,,0.00,,2013-02-15 08:53:00,
2013-02-15 04:02:00,36.0,23.0,29.88,WNW,293,0.0,0.0,58,0.00,,,0.00,,2013-02-15 09:02:00,
2013-02-15 04:21:00,35.0,21.0,29.88,SE,135,0.0,0.0,57,0.00,,,0.00,,2013-02-15 09:21:00,
2013-02-15 04:32:00,35.0,22.0,29.88,SE,135,0.0,0.0,58,0.00,,,0.00,,2013-02-15 09:32:00,
2013-02-15 04:52:00,35.0,22.0,29.88,South,180,0.0,0.0,59,0.00,,,0.00,,2013-02-15 09:52:00,
2013-02-15 05:01:00,35.0,22.0,29.88,South,180,0.0,0.0,59,0.00,,,0.00,,2013-02-15 10:01:00,
2013-02-15 05:21:00,36.0,23.0,29.88,SE,135,0.0,0.0,58,0.00,,,0.00,,2013-02-15 10:21:00,
2013-02-15 05:31:00,35.0,22.0,29.88,South,180,0.0,0.0,59,0.00,,,0.00,,2013-02-15 10:31:00,
2013-02-15 05:52:00,36.0,23.0,29.88,West,270,0.0,0.0,59,0.00,,,0.00,,2013-02-15 10:52:00,
2013-02-15 06:01:00,36.0,23.0,29.88,West,270,0.0,0.0,60,0.00,,,0.00,,2013-02-15 11:01:00,
2013-02-15 06:23:00,35.0,23.0,29.91,West,270,0.0,0.0,60,0.00,,,0.00,,2013-02-15 11:23:00,
2013-02-15 06:32:00,35.0,23.0,29.91,SSW,203,0.0,0.0,60,0.00,,,0.00,,2013-02-15 11:32:00,
2013-02-15 06:52:00,35.0,23.0,29.91,SE,135,0.0,0.0,61,0.00,,,0.00,,2013-02-15 11:52:00,
2013-02-15 07:02:00,35.0,23.0,29.91,SE,135,0.0,0.0,62,0.00,,,0.00,,2013-02-15 12:02:00,
2013-02-15 07:21:00,35.0,23.0,29.91,ESE,113,1.0,1.0,62,0.00,,,0.00,,2013-02-15 12:21:00,
2013-02-15 07:32:00,35.0,24.0,29.91,SW,225,0.0,1.0,63,0.00,,,0.00,,2013-02-15 12:32:00,
2013-02-15 07:52:00,35.0,22.0,29.94,West,270,0.0,0.0,59,0.00,,,0.00,,2013-02-15 12:52:00,
2013-02-15 08:02:00,35.0,23.0,29.94,NW,315,0.0,0.0,60,0.00,,,0.00,,2013-02-15 13:02:00,
2013-02-15 08:22:00,35.0,22.0,29.94,ESE,113,0.0,0.0,59,0.00,,,0.00,,2013-02-15 13:22:00,
2013-02-15 08:32:00,35.0,22.0,29.94,South,180,0.0,0.0,59,0.00,,,0.00,,2013-02-15 13:32:00,
2013-02-15 08:52:00,38.0,22.0,29.94,NNW,338,2.0,3.0,52,0.00,,,0.00,,2013-02-15 13:52:00,
2013-02-15 09:01:00,38.0,22.0,29.94,NW,315,3.0,3.0,51,0.00,,,0.00,,2013-02-15 14:01:00,
2013-02-15 09:21:00,38.0,21.0,29.94,WNW,293,3.0,4.0,50,0.00,,,0.00,,2013-02-15 14:21:00,
2013-02-15 10:42:00,41.0,20.0,29.97,North,0,5.0,5.0,42,0.00,,,0.00,,2013-02-15 15:42:00,
2013-02-15 10:52:00,41.0,20.0,29.97,North,0,5.0,5.0,42,0.00,,,0.00,,2013-02-15 15:52:00,
2013-02-15 11:02:00,42.0,22.0,29.97,SW,225,4.0,4.0,45,0.00,,,0.00,,2013-02-15 16:02:00,
2013-02-15 11:11:00,42.0,22.0,29.97,SW,225,4.0,4.0,45,0.00,,,0.00,,2013-02-15 16:11:00,
2013-02-15 11:22:00,43.0,23.0,29.97,West,270,4.0,4.0,44,0.00,,,0.00,,2013-02-15 16:22:00,
2013-02-15 11:32:00,42.0,22.0,29.97,NNE,23,3.0,4.0,44,0.00,,,0.00,,2013-02-15 16:32:00,
2013-02-15 11:51:00,41.0,23.0,29.97,WNW,293,5.0,6.0,48,0.00,,,0.00,,2013-02-15 16:51:00,
2013-02-15 12:01:00,40.0,23.0,29.97,NNW,338,5.0,7.0,50,0.00,,,0.00,,2013-02-15 17:01:00,
2013-02-15 12:11:00,43.0,25.0,29.97,North,0,1.0,3.0,49,0.00,,,0.00,,2013-02-15 17:11:00,
2013-02-15 12:21:00,43.0,25.0,29.97,North,0,1.0,3.0,49,0.00,,,0.00,,2013-02-15 17:21:00,
2013-02-15 12:32:00,45.0,25.0,29.97,NW,315,3.0,3.0,46,0.00,,,0.00,,2013-02-15 17:32:00,
2013-02-15 12:42:00,45.0,25.0,29.97,NW,315,3.0,3.0,46,0.00,,,0.00,,2013-02-15 17:42:00,
2013-02-15 12:52:00,44.0,23.0,29.97,NNW,338,4.0,4.0,43,0.00,,,0.00,,2013-02-15 17:52:00,
2013-02-15 13:01:00,44.0,22.0,29.97,WSW,248,4.0,4.0,41,0.00,,,0.00,,2013-02-15 18:01:00,
2013-02-15 13:21:00,47.0,23.0,29.97,SW,225,3.0,7.0,39,0.00,,,0.00,,2013-02-15 18:21:00,
2013-02-15 13:32:00,46.0,22.0,29.97,South,180,4.0,4.0,39,0.00,,,0.00,,2013-02-15 18:32:00,
2013-02-15 13:53:00,42.0,19.0,29.97,NNW,338,4.0,8.0,40,0.00,,,0.00,,2013-02-15 18:53:00,
2013-02-15 14:01:00,45.0,21.0,29.94,NNW,338,6.0,7.0,38,0.00,,,0.00,,2013-02-15 19:01:00,
2013-02-15 14:22:00,43.0,19.0,29.94,NNW,338,5.0,9.0,38,0.00,,,0.00,,2013-02-15 19:22:00,
2013-02-15 14:32:00,46.0,21.0,29.94,NW,315,3.0,7.0,37,0.00,,,0.00,,2013-02-15 19:32:00,
2013-02-15 14:52:00,44.0,17.0,29.94,NNW,338,7.0,8.0,33,0.00,,,0.00,,2013-02-15 19:52:00,
2013-02-15 15:01:00,46.0,17.0,29.94,NNW,338,6.0,6.0,31,0.00,,,0.00,,2013-02-15 20:01:00,
2013-02-15 15:21:00,46.0,18.0,29.94,NE,45,4.0,7.0,32,0.00,,,0.00,,2013-02-15 20:21:00,
2013-02-15 15:32:00,46.0,16.0,29.94,NNW,338,7.0,8.0,30,0.00,,,0.00,,2013-02-15 20:32:00,
2013-02-15 15:52:00,45.0,15.0,29.94,NW,315,6.0,7.0,30,0.00,,,0.00,,2013-02-15 20:52:00,
2013-02-15 16:02:00,47.0,17.0,29.94,WNW,293,4.0,7.0,30,0.00,,,0.00,,2013-02-15 21:02:00,
2013-02-15 16:21:00,45.0,15.0,29.97,North,0,7.0,9.0,29,0.00,,,0.00,,2013-02-15 21:21:00,
2013-02-15 16:32:00,43.0,13.0,29.97,WNW,293,6.0,10.0,29,0.00,,,0.00,,2013-02-15 21:32:00,
2013-02-15 16:52:00,43.0,13.0,29.97,NW,315,8.0,9.0,29,0.00,,,0.00,,2013-02-15 21:52:00,
2013-02-15 17:02:00,41.0,12.0,29.97,NW,315,5.0,13.0,30,0.00,,,0.00,,2013-02-15 22:02:00,
2013-02-15 17:11:00,40.0,10.0,30.00,NW,315,6.0,10.0,29,0.00,,,0.00,,2013-02-15 22:11:00,
2013-02-15 17:22:00,40.0,10.0,30.00,NW,315,6.0,10.0,29,0.00,,,0.00,,2013-02-15 22:22:00,
2013-02-15 17:32:00,40.0,10.0,30.00,WNW,293,4.0,8.0,29,0.00,,,0.00,,2013-02-15 22:32:00,
2013-02-15 17:52:00,40.0,10.0,30.00,NNE,23,4.0,6.0,29,0.00,,,0.00,,2013-02-15 22:52:00,
2013-02-15 18:02:00,39.0,9.0,30.00,NNW,338,4.0,7.0,29,0.00,,,0.00,,2013-02-15 23:02:00,
2013-02-15 18:21:00,38.0,9.0,30.00,North,0,4.0,7.0,29,0.00,,,0.00,,2013-02-15 23:21:00,
2013-02-15 18:32:00,37.0,8.0,30.00,West,270,3.0,8.0,30,0.00,,,0.00,,2013-02-15 23:32:00,
2013-02-15 18:52:00,35.0,7.0,30.03,WNW,293,3.0,4.0,31,0.00,,,0.00,,2013-02-15 23:52:00,
2013-02-15 19:02:00,34.0,7.0,30.03,NW,315,3.0,6.0,31,0.00,,,0.00,,2013-02-16 00:02:00,
2013-02-15 19:21:00,34.0,7.0,30.03,WNW,293,3.0,7.0,31,0.00,,,0.00,,2013-02-16 00:21:00,
2013-02-15 19:32:00,34.0,7.0,30.03,WNW,293,3.0,5.0,32,0.00,,,0.00,,2013-02-16 00:32:00,
2013-02-15 19:51:00,33.0,7.0,30.06,WNW,293,2.0,6.0,33,0.00,,,0.00,,2013-02-16 00:51:00,
2013-02-15 20:02:00,33.0,7.0,30.06,NW,315,2.0,4.0,33,0.00,,,0.00,,2013-02-16 01:02:00,
2013-02-15 20:21:00,33.0,8.0,30.06,NW,315,3.0,6.0,34,0.00,,,0.00,,2013-02-16 01:21:00,
2013-02-15 20:32:00,32.0,7.0,30.06,NNW,338,3.0,6.0,34,0.00,,,0.00,,2013-02-16 01:32:00,
2013-02-15 20:52:00,30.0,6.0,30.06,NW,315,3.0,3.0,36,0.00,,,0.00,,2013-02-16 01:52:00,
2013-02-15 21:01:00,28.0,6.0,30.09,NNE,23,0.0,3.0,38,0.00,,,0.00,,2013-02-16 02:01:00,
2013-02-15 21:21:00,28.0,7.0,30.09,WNW,293,1.0,3.0,40,0.00,,,0.00,,2013-02-16 02:21:00,
2013-02-15 21:32:00,29.0,8.0,30.09,WNW,293,3.0,3.0,40,0.00,,,0.00,,2013-02-16 02:32:00,
2013-02-15 21:52:00,28.0,7.0,30.06,WNW,293,1.0,3.0,41,0.00,,,0.00,,2013-02-16 02:52:00,
2013-02-15 22:02:00,25.0,5.0,30.06,SW,225,0.0,0.0,42,0.00,,,0.00,,2013-02-16 03:02:00,
2013-02-15 22:21:00,25.0,5.0,30.06,West,270,0.0,1.0,42,0.00,,,0.00,,2013-02-16 03:21:00,
2013-02-15 22:32:00,26.0,7.0,30.06,WNW,293,2.0,3.0,43,0.00,,,0.00,,2013-02-16 03:32:00,
2013-02-15 22:52:00,27.0,7.0,30.06,NNW,338,3.0,3.0,42,0.00,,,0.00,,2013-02-16 03:52:00,
2013-02-15 23:01:00,27.0,7.0,30.06,NW,315,2.0,3.0,42,0.00,,,0.00,,2013-02-16 04:01:00,
2013-02-15 23:11:00,26.0,6.0,30.06,NW,315,0.0,2.0,42,0.00,,,0.00,,2013-02-16 04:11:00,
2013-02-15 23:21:00,26.0,6.0,30.06,NW,315,0.0,2.0,42,0.00,,,0.00,,2013-02-16 04:21:00,
2013-02-15 23:32:00,24.0,5.0,30.06,NW,315,0.0,0.0,43,0.00,,,0.00,,2013-02-16 04:32:00,
2013-02-15 23:52:00,23.0,4.0,30.06,NW,315,0.0,0.0,44,0.00,,,0.00,,2013-02-16 04:52:00,